#timestamp,LO_Frequency,Hit,StdDev 
1676358015.4,286046994.9,P
1676358035.2,286046995.5,N
1676358055.0,286046994.3,P
1676358055.9,286046994.3,Y
1676358075.8,286046999.2,P
1676358095.6,286047000.3,N
1676358115.4,286047002.5,N
1676358135.3,286047002.7,N
1676358155.1,286047000.0,N
1676358175.9,286047000.5,N
1676358195.7,286046996.9,N
1676358215.5,286046996.6,N
1676358235.4,286046998.5,N
1676358255.2,286047002.4,N
1676358275.0,286047004.4,N
1676358276.0,286047004.4,N
1676358295.8,286047005.7,N
1676358315.6,286047005.4,N
1676358335.5,286047006.2,N
1676358355.3,286047004.5,N
1676358375.1,286047003.5,N
1676358395.9,286047004.4,N
1676358415.7,286047003.8,N
1676358435.5,286047004.5,N
1676358455.4,286047005.5,N
1676358475.2,286047006.0,N
1676358495.1,286047005.5,N
1676358496.0,286047005.5,N
1676358515.8,286047006.4,N
1676358535.6,286047005.0,N
1676358555.5,286047006.9,N
1676358575.3,286047007.2,N
1676358595.2,286047008.9,N
1676358615.9,286047010.8,Y
1676358635.7,286047001.7,P
1676358655.6,286047004.3,P
1676358675.4,286047001.6,N
1676358695.3,286047001.5,N
1676358715.1,286047003.8,Y
1676358735.8,286046998.4,P
1676358755.7,286046996.5,N
1676358775.5,286046998.6,N
1676358795.3,286047000.2,N
1676358815.2,286047000.4,N
1676358835.0,286047000.3,N
1676358835.9,286047000.3,N
1676358855.8,286047000.0,N
1676358875.6,286047000.2,N
1676358895.4,286047000.0,N
1676358915.3,286047000.2,N
1676358935.1,286047000.2,N
1676358955.8,286047001.1,N
1676358975.7,286046999.8,N
1676358995.5,286047000.6,N
1676359015.4,286046999.9,N
1676359035.2,286047002.8,N
1676359055.0,286046998.5,N
1676359055.9,286046998.5,N
1676359075.8,286046999.4,N
1676359095.6,286046998.8,N
1676359115.5,286046998.3,N
1676359135.3,286047000.8,N
1676359155.1,286046998.8,N
1676359175.9,286046996.8,N
1676359195.7,286046998.2,N
1676359215.5,286046999.3,N
1676359235.4,286046999.6,N
1676359255.2,286046998.4,N
1676359275.0,286047000.9,N
1676359276.0,286047000.9,N
1676359295.8,286047002.7,N
1676359315.6,286047000.6,N
1676359335.5,286047000.7,N
1676359355.3,286046999.0,N
1676359375.1,286046997.1,N
1676359395.9,286046997.5,N
1676359415.7,286046998.0,N
1676359435.6,286046998.0,N
1676359455.4,286046997.8,N
1676359475.2,286046999.2,N
1676359495.1,286046997.2,N
1676359496.0,286046997.2,N
1676359515.8,286046997.2,N
1676359535.6,286046997.2,N
1676359555.5,286046998.0,N
1676359575.3,286046996.0,N
1676359595.1,286046996.2,N
1676359615.9,286046995.9,N
1676359635.7,286046996.4,N
1676359655.6,286046995.2,N
1676359675.4,286046996.9,N
1676359695.2,286046995.4,N
1676359715.1,286046997.5,N
1676359716.0,286046997.5,N
1676359735.8,286046996.9,N
1676359755.7,286046995.3,N
1676359775.5,286046995.8,N
1676359795.3,286046997.1,N
1676359815.2,286046998.0,N
1676359835.9,286046994.9,N
1676359855.7,286046995.0,N
1676359875.6,286046995.2,Y
1676359895.4,286046999.1,P
1676359915.3,286046996.6,P
1676359935.1,286046999.1,N
1676359936.0,286046999.1,N
1676359955.8,286046996.7,Y
1676359975.7,286046996.5,P
1676359995.5,286047000.7,N
1676360015.3,286047002.2,N
1676360035.2,286047002.5,N
1676360055.0,286047003.2,N
1676360055.9,286047003.2,N
1676360075.8,286047002.9,N
1676360095.6,286047003.6,N
1676360115.4,286047000.5,N
1676360135.3,286046998.4,N
1676360155.1,286047000.9,N
1676360175.9,286047000.5,N
1676360195.7,286047002.3,N
1676360215.5,286047000.1,N
1676360235.4,286047001.6,N
1676360255.2,286047002.3,N
1676360275.0,286047002.8,N
1676360275.9,286047002.8,N
1676360295.8,286047002.8,N
1676360315.6,286047002.8,N
1676360335.5,286047003.9,N
1676360355.3,286047003.3,N
1676360375.1,286047004.3,N
1676360395.9,286047002.0,N
1676360415.7,286047001.9,N
1676360435.5,286047003.8,N
1676360455.4,286047004.1,N
1676360475.2,286047003.8,N
1676360495.0,286047004.2,N
1676360496.0,286047004.2,N
1676360515.8,286047001.3,N
1676360535.6,286047003.0,N
1676360555.5,286047005.0,Y
1676360575.3,286047001.1,P
1676360595.1,286047000.8,N
1676360615.9,286047000.8,N
1676360635.7,286046998.4,N
1676360655.6,286046999.6,N
1676360675.4,286046996.5,N
1676360695.2,286046996.5,N
1676360715.1,286046998.6,N
1676360716.0,286046998.6,N
1676360735.8,286047002.4,N
1676360755.6,286047002.2,N
1676360775.5,286047002.4,N
1676360795.3,286047002.8,N
1676360815.2,286047001.4,N
1676360835.9,286047000.1,N
1676360855.7,286047000.0,N
1676360875.6,286047000.3,N
1676360895.4,286047001.5,N
1676360915.3,286047002.1,N
1676360935.1,286047001.4,N
1676360936.0,286047001.4,N
1676360955.8,286047001.6,N
1676360975.7,286047000.3,N
1676360995.5,286046999.8,N
1676361015.3,286046999.8,N
1676361035.2,286047001.7,N
1676361055.0,286047003.0,N
1676361055.9,286047003.0,N
1676361075.8,286047004.4,N
1676361095.6,286046999.7,N
1676361115.4,286047002.7,N
1676361135.3,286047002.8,N
1676361155.1,286046999.7,N
1676361175.8,286047004.2,N
1676361195.7,286047001.9,N
1676361215.5,286046998.5,N
1676361235.4,286047002.3,N
1676361255.2,286047001.5,N
1676361275.0,286047000.6,N
1676361275.9,286047000.6,N
1676361295.8,286047000.3,N
1676361315.6,286047000.3,N
1676361335.5,286047000.9,N
1676361355.3,286046997.0,N
1676361375.1,286046999.4,N
1676361395.9,286046996.7,N
1676361415.7,286046997.1,N
1676361435.5,286046996.5,N
1676361455.4,286046999.5,N
1676361475.2,286046997.8,N
1676361495.1,286046997.7,N
1676361496.0,286046997.7,N
1676361515.8,286046995.9,N
1676361535.6,286046995.6,N
1676361555.5,286046998.0,N
1676361575.3,286046996.7,N
1676361595.1,286047000.4,N
